Date String (YYYY-MM-DD hh:mm:ss) UTC,Instrument flags,Ambient pressure (hPa),Sample flow (lpm),Bypass flow (lpm),Sample temperature (°C),Ambient temperature (°C),ASC tube jacket temperature (°C),LED temperature (°C),Box temperature (°C),Sample RH (%),Span deviation,Mass concentration (μg/m³),Mass concentration (μg/m³),Mass concentration (μg/m³)
DateTimeUTC,F1_M11,P_M11,Q1_M11,Q2_M11,T1_M11,T2_M11,T3_M11,T4_M11,T5_M11,U1_M11,ZSPAN_M11,X0_M11,X2_M11,X1_M11
2022-11-29 00:00:00,,0808.5,5.01,0.00,21.9,20.4,00.0,31.0,23.7,10.9,0000.0,0009.75,0002.56,0001.43
2022-11-29 00:01:00,,0808.5,5.02,0.00,21.9,20.4,00.0,30.9,23.7,10.9,0000.0,0010.16,0002.72,0001.51
2022-11-29 00:02:00,,0808.4,5.00,0.00,21.9,20.4,00.0,30.9,23.7,10.9,0000.0,0010.28,0002.87,0001.56
2022-11-29 00:03:00,,0808.4,4.99,0.00,21.9,20.4,00.0,30.9,23.7,10.8,0000.0,0010.48,0002.92,0001.59
2022-11-29 00:04:00,,0808.4,5.00,0.00,21.9,20.4,00.0,30.9,23.7,10.8,0000.0,0009.72,0002.84,0001.61
2022-11-29 00:05:00,,0808.5,5.00,0.00,21.9,20.4,00.0,30.9,23.7,10.9,0000.0,0009.72,0002.85,0001.63
2022-11-29 00:06:00,,0808.5,5.01,0.00,21.8,20.4,00.0,30.9,23.6,11.0,0000.0,0010.19,0002.90,0001.63
2022-11-29 00:07:00,,0808.5,4.99,0.00,21.8,20.4,00.0,30.9,23.6,11.0,0000.0,0010.99,0002.95,0001.64
2022-11-29 00:08:00,,0808.5,5.01,0.00,21.8,20.4,00.0,30.9,23.6,11.1,0000.0,0010.73,0002.99,0001.67
2022-11-29 00:09:00,,0808.4,5.00,0.00,21.8,20.4,00.0,30.8,23.6,11.3,0000.0,0011.05,0003.01,0001.70
2022-11-29 00:10:00,,0808.4,4.99,0.00,21.8,20.4,00.0,30.8,23.7,11.3,0000.0,0011.84,0003.05,0001.70
2022-11-29 00:11:00,,0808.4,5.01,0.00,21.8,20.5,00.0,30.8,23.7,11.3,0000.0,0012.40,0003.03,0001.70
2022-11-29 00:12:00,,0808.4,5.01,0.00,21.8,20.6,00.0,30.8,23.7,11.2,0000.0,0013.62,0003.00,0001.70
2022-11-29 00:13:00,,0808.4,4.99,0.00,21.9,20.6,00.0,30.8,23.8,11.2,0000.0,0013.49,0002.90,0001.70
2022-11-29 00:14:00,,0808.4,5.00,0.00,21.9,20.7,00.0,30.8,23.8,11.2,0000.0,0013.56,0002.84,0001.69
2022-11-29 00:15:00,,0808.4,5.01,0.00,21.9,20.7,00.0,30.8,23.8,11.0,0000.0,0013.40,0002.88,0001.70
2022-11-29 00:16:00,,0808.4,5.00,0.00,21.9,20.8,00.0,30.8,23.8,11.1,0000.0,0013.87,0002.91,0001.70
2022-11-29 00:17:00,,0808.4,4.99,0.00,21.9,20.8,00.0,30.8,23.8,11.2,0000.0,0014.02,0002.91,0001.71
2022-11-29 00:18:00,,0808.4,5.00,0.00,22.0,20.8,00.0,30.8,23.8,11.0,0000.0,0013.39,0003.00,0001.73
2022-11-29 00:19:00,,0808.4,5.01,0.00,22.0,20.8,00.0,30.8,23.8,11.0,0000.0,0013.92,0003.06,0001.74
2022-11-29 00:20:00,,0808.4,5.00,0.00,21.9,20.7,00.0,30.8,23.8,11.0,0000.0,0014.54,0003.11,0001.74
2022-11-29 00:21:00,,0808.5,4.99,0.00,21.9,20.7,00.0,30.9,23.8,11.0,0000.0,0014.35,0003.15,0001.76
2022-11-29 00:22:00,,0808.4,5.00,0.00,21.9,20.6,00.0,30.9,23.8,10.9,0000.0,0014.08,0003.18,0001.78
2022-11-29 00:23:00,,0808.5,5.00,0.00,21.9,20.6,00.0,30.9,23.8,10.9,0000.0,0012.51,0003.18,0001.79
2022-11-29 00:24:00,,0808.5,5.00,0.00,21.9,20.5,00.0,30.9,23.8,10.9,0000.0,0012.12,0003.20,0001.80
2022-11-29 00:25:00,,0808.6,5.00,0.00,21.9,20.4,00.0,30.9,23.7,10.9,0000.0,0011.28,0003.27,0001.82
2022-11-29 00:26:00,,0808.6,5.00,0.00,21.9,20.4,00.0,30.9,23.7,11.0,0000.0,0011.25,0003.27,0001.83
2022-11-29 00:27:00,,0808.6,5.00,0.00,21.9,20.4,00.0,30.9,23.7,11.0,0000.0,0011.17,0003.27,0001.82
2022-11-29 00:28:00,,0808.6,5.01,0.00,21.8,20.4,00.0,30.8,23.6,10.9,0000.0,0012.38,0003.29,0001.82
2022-11-29 00:29:00,,0808.6,5.00,0.00,21.8,20.4,00.0,30.8,23.6,10.9,0000.0,0011.87,0003.23,0001.80
2022-11-29 00:30:00,,0808.6,5.00,0.00,21.8,20.4,00.0,30.8,23.7,11.0,0000.0,0011.82,0003.19,0001.77
2022-11-29 00:31:00,,0808.6,5.01,0.00,21.8,20.4,00.0,30.8,23.6,11.0,0000.0,0010.97,0003.17,0001.76
2022-11-29 00:32:00,,0808.6,4.99,0.00,21.8,20.4,00.0,30.8,23.6,10.9,0000.0,0010.40,0003.13,0001.75
2022-11-29 00:33:00,,0808.6,4.99,0.00,21.8,20.4,00.0,30.8,23.6,10.7,0000.0,0010.02,0003.09,0001.75
2022-11-29 00:34:00,,0808.6,5.01,0.00,21.8,20.4,00.0,30.8,23.5,10.7,0000.0,0010.87,0003.13,0001.76
2022-11-29 00:35:00,,0808.6,5.00,0.00,21.8,20.4,00.0,30.8,23.5,10.7,0000.0,0011.51,0003.13,0001.76
2022-11-29 00:36:00,,0808.6,5.00,0.00,21.7,20.3,00.0,30.8,23.5,10.8,0000.0,0012.40,0003.09,0001.76
2022-11-29 00:37:00,,0808.6,5.00,0.00,21.7,20.3,00.0,30.8,23.5,10.7,0000.0,0012.91,0003.09,0001.75
2022-11-29 00:38:00,,0808.6,4.99,0.00,21.7,20.4,00.0,30.8,23.5,10.5,0000.0,0012.64,0002.99,0001.75
2022-11-29 00:39:00,,0808.6,4.99,0.00,21.7,20.4,00.0,30.7,23.5,10.6,0000.0,0011.14,0002.90,0001.75
2022-11-29 00:40:00,,0808.6,5.00,0.00,21.7,20.4,00.0,30.7,23.5,10.6,0000.0,0010.72,0002.86,0001.73
2022-11-29 00:41:00,,0808.6,5.01,0.00,21.7,20.3,00.0,30.7,23.5,10.6,0000.0,0010.32,0002.85,0001.73
2022-11-29 00:42:00,,0808.6,5.01,0.00,21.7,20.3,00.0,30.7,23.5,10.7,0000.0,0010.18,0002.84,0001.74
2022-11-29 00:43:00,,0808.6,5.00,0.00,21.7,20.3,00.0,30.7,23.5,10.7,0000.0,0010.38,0002.86,0001.74
2022-11-29 00:44:00,,0808.6,4.99,0.00,21.7,20.3,00.0,30.7,23.4,10.7,0000.0,0010.49,0002.91,0001.73
2022-11-29 00:45:00,,0808.7,4.99,0.00,21.7,20.3,00.0,30.7,23.5,10.7,0000.0,0010.04,0002.92,0001.72
2022-11-29 00:46:00,,0808.7,4.99,0.00,21.6,20.3,00.0,30.7,23.5,10.8,0000.0,0009.91,0002.90,0001.71
2022-11-29 00:47:00,,0808.7,5.00,0.00,21.7,20.3,00.0,30.7,23.4,10.7,0000.0,0008.94,0002.91,0001.69
2022-11-29 00:48:00,,0808.7,5.00,0.00,21.6,20.3,00.0,30.7,23.4,10.7,0000.0,0008.22,0002.87,0001.68
2022-11-29 00:49:00,,0808.7,5.00,0.00,21.6,20.2,00.0,30.7,23.4,10.7,0000.0,0008.31,0002.93,0001.69
2022-11-29 00:50:00,,0808.7,5.00,0.00,21.6,20.2,00.0,30.7,23.4,10.7,0000.0,0008.59,0002.94,0001.70
2022-11-29 00:51:00,,0808.7,5.00,0.00,21.6,20.3,00.0,30.6,23.4,10.7,0000.0,0009.08,0002.95,0001.71
2022-11-29 00:52:00,,0808.7,5.00,0.00,21.6,20.3,00.0,30.6,23.4,10.6,0000.0,0008.88,0002.91,0001.70
2022-11-29 00:53:00,,0808.7,4.99,0.00,21.6,20.4,00.0,30.6,23.5,10.6,0000.0,0008.74,0002.86,0001.68
2022-11-29 00:54:00,,0808.7,4.99,0.00,21.7,20.5,00.0,30.6,23.5,10.6,0000.0,0008.90,0002.85,0001.68
2022-11-29 00:55:00,,0808.7,5.01,0.00,21.7,20.5,00.0,30.6,23.5,10.6,0000.0,0009.03,0002.85,0001.70
2022-11-29 00:56:00,,0808.7,5.01,0.00,21.7,20.5,00.0,30.6,23.5,10.6,0000.0,0009.57,0002.77,0001.71
2022-11-29 00:57:00,,0808.7,5.00,0.00,21.7,20.5,00.0,30.6,23.5,10.6,0000.0,0008.90,0002.73,0001.72
2022-11-29 00:58:00,,0808.7,5.01,0.00,21.7,20.5,00.0,30.6,23.5,10.6,0000.0,0008.72,0002.73,0001.75
2022-11-29 00:59:00,,0808.8,5.00,0.00,21.7,20.5,00.0,30.6,23.5,10.6,0000.0,0008.75,0002.75,0001.77
